This is the latest recevied weather packets stored in our database for station/object OE3MHU-13. If no packets are shown the sender has not sent any weather packets the latest 10 day(s).
| Time | Temp. | Humidity | Pressure | Rain* | Wind** | Luminosity | Snow |
|---|---|---|---|---|---|---|---|
| 1788082001 | 30° C | 45% | 1019.1 hPa | 0 mm | - | - | - |
| 1788081991 | 28.89° C | 46% | 1019 hPa | 0 mm | - | - | - |
| 1788081275 | 30° C | 47% | 1019 hPa | 0 mm | - | - | - |
| 1788080969 | 30° C | 48% | 1019 hPa | 0 mm | - | - | - |
| 1788080663 | 29.44° C | 49% | 1019.1 hPa | 0 mm | - | - | - |
| 1788080357 | 29.44° C | 50% | 1019.2 hPa | 0 mm | - | - | - |
| 1788080051 | 28.89° C | 51% | 1019.3 hPa | 0 mm | - | - | - |
| 1788079877 | 28.33° C | 53% | 1019.3 hPa | 0 mm | - | - | - |
| 1788079870 | 28.89° C | 51% | 1019.3 hPa | 0 mm | - | - | - |
| 1788079133 | 28.33° C | 53% | 1019.2 hPa | 0 mm | - | - | - |
| 1788078827 | 27.78° C | 54% | 1019.3 hPa | 0 mm | - | - | - |
| 1788078521 | 27.22° C | 55% | 1019.4 hPa | 0 mm | - | - | - |
| 1788078215 | 27.22° C | 56% | 1019.4 hPa | 0 mm | - | - | - |
| 1788077909 | 27.22° C | 55% | 1019.4 hPa | 0 mm | - | - | - |
| 1788077603 | 26.67° C | 57% | 1019.4 hPa | 0 mm | - | - | - |
| 1788077297 | 26.67° C | 56% | 1019.4 hPa | 0 mm | - | - | - |
| 1788076991 | 26.67° C | 58% | 1019.4 hPa | 0 mm | - | - | - |
| 1788076685 | 26.67° C | 58% | 1019.4 hPa | 0 mm | - | - | - |
| 1788076379 | 26.11° C | 58% | 1019.5 hPa | 0 mm | - | - | - |
| 1788076073 | 25.56° C | 61% | 1019.4 hPa | 0 mm | - | - | - |
| 1788075766 | 25° C | 61% | 1019.5 hPa | 0 mm | - | - | - |
| 1788075461 | 24.44° C | 63% | 1019.4 hPa | 0 mm | - | - | - |
| 1788075154 | 23.89° C | 65% | 1019.4 hPa | 0 mm | - | - | - |
| 1788074849 | 23.33° C | 67% | 1019.3 hPa | 0 mm | - | - | - |
| 1788074543 | 22.78° C | 68% | 1019.3 hPa | 0 mm | - | - | - |
* Rain latest hour (hover to see other rain measurements)
** Current wind speed in m/s (hover to see current wind gust speed)